Location: Lanoux
(43.1180°N, 1.4255°E)
Time: 09:36:21
(UTC+00:00)

ARIANE 6 FM1 Upper Stage - Pass Details

Date: 16 February 2026
Orbit: 523 x 607 km, 62.0° (Epoch: 7 March)

Event Time Altitude Azimuth Distance (km) Brightness Sun altitude
Rises 19:16:15 0° 322° (NW) 2,658 6.7 -20.6°
Reaches altitude 10° 19:18:26 10° 323° (NW) 1,767 5.7 -21.0°
Maximum altitude 19:22:23 81° 50° (NE) 538 2.4 -21.7°
Enters shadow 19:22:28 81° 70° (ENE) 538 2.3 -21.7°
